Location: Newark
(51.3318°N, 0.0053°E)
Time: 22:06:14
(UTC+00:00)

LO-87 - Pass Details

Date: 28 June 2022
Orbit: 450 x 466 km, 97.4° (Epoch: 18 August)

Event Time Altitude Azimuth Distance (km) Brightness Sun altitude
Exits shadow 23:26:22 32° 170° (S) 820 ? -15.0°
Maximum altitude 23:27:52 85° 254° (WSW) 470 ? -15.0°
Drops below altitude 10° 23:31:22 10° 346° (NNW) 1,626 ? -15.1°
Sets 23:33:26 0° 347° (NNW) 2,511 ? -15.1°
